Location: Mount Cross
(36.6390°N, 79.4878°W)
Time: 11:53:25
(UTC+00:00)

Explorer 11/Cluster Stage 4 - Visible Passes

Search period start: 26 March 2023 00:00
Search period end: 05 April 2023 00:00
Orbit: 466 x 1241 km, 28.8° (Epoch: 25 March)

Date Brightness Start Highest point End Pass type
(mag) Time Alt. Az. Time Alt. Az. Time Alt. Az.
29 Mar 7.8 10:37:43 10° SSW 10:40:35 20° SSE 10:43:46 10° ESE visible
30 Mar 7.6 10:24:05 10° SW 10:26:55 21° SSE 10:30:02 10° ESE visible
31 Mar 7.4 10:10:44 11° SW 10:13:16 21° SSE 10:16:19 10° ESE visible
01 Apr 7.3 09:57:52 16° SSW 09:59:37 22° S 10:02:37 10° ESE visible
02 Apr 7.1 09:44:58 20° SSW 09:45:58 22° S 09:48:55 10° ESE visible
03 Apr 7.0 09:32:04 23° S 09:32:18 23° S 09:35:15 10° ESE visible
04 Apr 7.1 09:19:10 23° SSE 09:19:10 23° SSE 09:21:36 10° ESE visible
